Location: Azat
(46.0765°N, 1.7600°E)
Time: 15:11:09
(UTC+00:00)

STARLINK-1225 - Pass Details

Date: 09 April 2020
Orbit: 549 x 550 km, 53.0° (Epoch: 28 May)

Event Time Altitude Azimuth Distance (km) Brightness Sun altitude
Rises 20:37:29 0° 300° (WNW) 2,734 8.7 -20.4°
Reaches altitude 10° 20:39:44 10° 301° (WNW) 1,837 7.5 -20.7°
Maximum altitude 20:43:55 90° 33° (NNE) 559 3.5 -21.3°
Enters shadow 20:44:20 72° 121° (ESE) 586 3.4 -21.3°
